This demonstration page uses our WeatherBlox Daily Observations layout. Learn more.

Left ArrowRight Arrow

Hourly Observations for May 28, 2016

Temp ( °F °C ) Dew Point ( °F °C ) Humidity (%) Winds ( mph kmh ) Pressure ( in mb ) Visibility ( mi km ) Precip ( " mm )
12:52 am 00:52 Clear 66 18.9 62 16.7 87 87 S 9 15 29.79 1009 10 16 0.00 0.00
1:52 am 01:52 Mostly Cloudy 65 18.3 61 16.1 87 87 S 6 9 29.79 1009 10 16 0.00 0.00
2:52 am 02:52 Cloudy 66 18.9 61 16.1 84 84 SSE 9 15 29.79 1009 10 16 0.00 0.00
3:52 am 03:52 Clear 64 17.8 61 16.1 90 90 SSE 10 17 29.80 1009 10 16 0.00 0.00
4:52 am 04:52 Clear 63 17.2 60 15.6 90 90 SSE 13 20 29.81 1009 10 16 0.00 0.00
5:52 am 05:52 Clear 63 17.2 60 15.6 90 90 S 9 15 29.83 1010 10 16 0.00 0.00
6:52 am 06:52 Sunny 63 17.2 60 15.6 90 90 SSE 9 15 29.84 1010 10 16 0.00 0.00
7:52 am 07:52 Sunny 65 18.3 61 16.1 87 87 SSE 12 19 29.85 1011 10 16 0.00 0.00
8:52 am 08:52 Sunny 69 20.6 62 16.7 78 78 SSW 14 22 29.87 1012 10 16 0.00 0.00
9:52 am 09:52 Sunny 71 21.7 62 16.7 73 73 SSW 14 22 29.88 1012 10 16 0.00 0.00
10:52 am 10:52 Partly Cloudy 75 23.9 63 17.2 66 66 SSW 15 24 29.89 1012 10 16 0.00 0.00
11:33 am 11:33 Mostly Cloudy 76 24.4 64 17.8 67 67 SW 10 17 29.88 1012 10 16 0.00 0.00
11:52 am 11:52 Partly Cloudy 77 25 64 17.8 64 64 SW 13 20 29.91 1013 10 16 0.00 0.00
12:14 pm 12:14 Mostly Cloudy 77 25 64 18 65 65 WSW 12 19 29.88 1012 10 16 0.00 0.00
12:35 pm 12:35 Mostly Cloudy 77 25 64 17.8 64 64 WSW 14 22 29.88 1012 10 16 0.00 0.00
12:52 pm 12:52 Partly Cloudy 77 25 64 17.8 64 64 W 13 20 29.92 1013 10 16 0.00 0.00
1:52 pm 13:52 Mostly Sunny 78 25.6 65 18.3 64 64 WSW 13 20 29.92 1013 10 16 0.00 0.00
2:52 pm 14:52 Mostly Sunny 79 26.1 64 17.8 60 60 SW 14 22 29.92 1013 10 16 0.00 0.00
3:52 pm 15:52 Partly Cloudy 79 26.1 64 17.8 60 60 SW 10 17 29.93 1014 10 16 0.00 0.00
4:52 pm 16:52 Partly Cloudy 80 26.7 63 17.2 56 56 W 9 15 29.93 1014 10 16 0.00 0.00
5:52 pm 17:52 Mostly Sunny 79 26.1 64 17.8 60 60 WSW 8 13 29.92 1013 10 16 0.00 0.00
6:52 pm 18:52 Sunny 78 25.6 62 16.7 58 58 W 9 15 29.93 1014 10 16 0.00 0.00
7:52 pm 19:52 Sunny 76 24.4 62 16.7 62 62 W 9 15 29.95 1014 10 16 0.00 0.00
8:52 pm 20:52 Clear 72 22.2 62 16.7 71 71 W 7 11 29.96 1015 10 16 0.00 0.00
9:52 pm 21:52 Clear 68 20 61 16.1 78 78 SSW 5 7 29.99 1016 10 16 0.00 0.00
10:52 pm 22:52 Clear 65 18.3 60 15.6 84 84 SSW 5 7 30.01 1016 10 16 0.00 0.00
11:52 pm 23:52 Clear 64 17.8 60 15.6 87 87 SW 3 6 30.02 1017 10 16 0.00 0.00

Powered by AerisWeather